Simultaneous Nadir Overpasses (SNOs) Predictions

Prediction of SNOs between GOES-14 and NOAA-20 Satellite Orbit:

Table of predicted SNOs for the next 14.0 days since TLE Epoch: 8/22/2020
Index Date Time (GOES-14) GOES-14 Lat,Lon NOAA-20 Lat,Lon Distance(km) Time Diff (sec)
1 08/23/2020 08:26:09 0.42,-104.47 0.54,-104.95 55.23 80
2 08/24/2020 08:04:43 0.41,-104.46 -0.47,-100.41 460.16 80
3 08/25/2020 20:26:40 -0.41,-104.62 -0.67,-105.73 125.95 80
4 08/26/2020 20:10:35 -0.41,-104.63 0.39,-101.20 390.93 80
5 08/28/2020 08:32:20 0.41,-104.47 0.87,-106.45 226.66 80
6 08/29/2020 08:10:56 0.40,-104.46 -0.19,-101.93 288.60 80
7 08/30/2020 20:32:51 -0.40,-104.60 -1.01,-107.23 300.42 80
8 08/31/2020 20:16:47 -0.40,-104.60 0.05,-102.71 216.86 80
9 09/02/2020 08:38:33 0.39,-104.48 1.15,-107.97 397.19 80
10 09/03/2020 08:17:08 0.39,-104.47 0.14,-103.43 118.60 80
11 09/04/2020 20:39:03 -0.39,-104.59 -1.34,-108.73 472.80 80
